• In Hungary
  • List of Countries
  • For 7 days
  • Water Temperature
  • Satellite Maps
  • Weather Map
  • News
  • Weather Widgets
  • user-avatar
    Login

    Hourly Weather Davletkulovo 1-e

    Today, 23 September, Sunday

    Time Temperature Precipitation Wind Pressure Humidity
    00:00 +12°C° 0 mm 1 mps 739 mmHg 90%
    01:00 +12°C° 0 mm 1 mps 739 mmHg 91%
    02:00 +12°C° 0 mm 1 mps 739 mmHg 92%
    03:00 +12°C° 0 mm 1 mps 739 mmHg 93%
    04:00 +12°C° 0 mm 1 mps 739 mmHg 92%
    05:00 +13°C° 0.1 mm 1 mps 739 mmHg 93%
    06:00 +13°C° 0.1 mm 1 mps 740 mmHg 94%
    07:00 +13°C° 0.1 mm 1 mps 740 mmHg 94%
    08:00 +14°C° 0 mm 1 mps 740 mmHg 91%
    09:00 +15°C° 0 mm 1 mps 740 mmHg 88%
    10:00 +18°C° 0 mm 1 mps 739 mmHg 85%
    11:00 +19°C° 0 mm 1 mps 739 mmHg 80%
    12:00 +19°C° 0 mm 2 mps 739 mmHg 75%
    13:00 +20°C° 0 mm 2 mps 739 mmHg 70%
    14:00 +20°C° 0 mm 2 mps 739 mmHg 70%
    15:00 +20°C° 0 mm 2 mps 739 mmHg 70%
    16:00 +20°C° 0 mm 2 mps 739 mmHg 69%
    17:00 +20°C° 0 mm 1 mps 739 mmHg 76%
    18:00 +18°C° 0 mm 1 mps 739 mmHg 82%
    19:00 +16°C° 0 mm 1 mps 739 mmHg 88%
    20:00 +14°C° 0 mm 0 mps 739 mmHg 89%
    21:00 +14°C° 0 mm 0 mps 739 mmHg 89%
    22:00 +13°C° 0 mm 0 mps 739 mmHg 90%
    23:00 +14°C° 0 mm 1 mps 739 mmHg 91%

    Tomorrow, 24 September, Monday

    Time Temperature Precipitation Wind Pressure Humidity
    00:00 +14°C° 0 mm 1 mps 739 mmHg 91%
    01:00 +14°C° 0 mm 1 mps 739 mmHg 92%
    02:00 +13°C° 0 mm 1 mps 739 mmHg 92%
    03:00 +13°C° 0 mm 1 mps 738 mmHg 93%
    04:00 +13°C° 0 mm 1 mps 738 mmHg 93%
    05:00 +13°C° 0 mm 1 mps 738 mmHg 93%
    06:00 +13°C° 0 mm 1 mps 738 mmHg 93%
    07:00 +13°C° 0 mm 1 mps 738 mmHg 94%
    08:00 +15°C° 0.1 mm 2 mps 738 mmHg 87%
    09:00 +17°C° 0.1 mm 3 mps 738 mmHg 81%
    10:00 +19°C° 0.1 mm 3 mps 738 mmHg 75%
    11:00 +20°C° 0.1 mm 4 mps 738 mmHg 69%
    12:00 +21°C° 0.1 mm 5 mps 738 mmHg 62%
    13:00 +22°C° 0.1 mm 5 mps 738 mmHg 55%
    14:00 +23°C° 0 mm 5 mps 738 mmHg 54%
    15:00 +23°C° 0 mm 5 mps 738 mmHg 53%
    16:00 +23°C° 0 mm 5 mps 737 mmHg 51%
    17:00 +21°C° 0 mm 4 mps 737 mmHg 56%
    18:00 +19°C° 0 mm 3 mps 737 mmHg 60%
    19:00 +17°C° 0 mm 3 mps 737 mmHg 64%
    20:00 +17°C° 0 mm 3 mps 737 mmHg 65%
    21:00 +16°C° 0 mm 3 mps 737 mmHg 66%
    22:00 +16°C° 0 mm 3 mps 737 mmHg 67%
    23:00 +14°C° 0 mm 3 mps 737 mmHg 68%

    Day after tomorrow, 25 September, Tuesday

    Time Temperature Precipitation Wind Pressure Humidity
    00:00 +14°C° 0 mm 2 mps 737 mmHg 70%
    01:00 +14°C° 0 mm 2 mps 737 mmHg 71%
    02:00 +14°C° 0 mm 2 mps 737 mmHg 70%
    03:00 +12°C° 0 mm 3 mps 737 mmHg 69%
    04:00 +12°C° 0 mm 3 mps 737 mmHg 67%
    05:00 +12°C° 0 mm 3 mps 737 mmHg 66%
    06:00 +12°C° 0 mm 3 mps 737 mmHg 65%
    07:00 +12°C° 0 mm 3 mps 737 mmHg 64%
    08:00 +15°C° 0 mm 4 mps 737 mmHg 58%
    09:00 +17°C° 0 mm 5 mps 737 mmHg 51%
    10:00 +20°C° 0 mm 7 mps 737 mmHg 44%
    11:00 +21°C° 0 mm 7 mps 737 mmHg 44%
    12:00 +22°C° 0 mm 7 mps 737 mmHg 43%
    13:00 +22°C° 0 mm 7 mps 737 mmHg 43%
    14:00 +22°C° 0 mm 7 mps 737 mmHg 43%
    15:00 +22°C° 0 mm 6 mps 737 mmHg 43%
    16:00 +22°C° 0 mm 5 mps 737 mmHg 44%
    17:00 +20°C° 0 mm 4 mps 737 mmHg 47%
    18:00 +18°C° 0 mm 3 mps 737 mmHg 51%
    19:00 +16°C° 0 mm 2 mps 737 mmHg 55%
    20:00 +16°C° 0 mm 2 mps 737 mmHg 55%
    21:00 +15°C° 0 mm 2 mps 737 mmHg 56%
    22:00 +15°C° 0 mm 2 mps 737 mmHg 56%
    23:00 +15°C° 0 mm 2 mps 737 mmHg 57%

    26 September, Wednesday

    Time Temperature Precipitation Wind Pressure Humidity
    00:00 +13°C° 0 mm 3 mps 737 mmHg 58%
    01:00 +13°C° 0 mm 3 mps 737 mmHg 60%
    02:00 +13°C° 0 mm 3 mps 737 mmHg 61%
    03:00 +13°C° 0 mm 3 mps 737 mmHg 62%
    04:00 +13°C° 0 mm 3 mps 737 mmHg 63%
    05:00 +13°C° 0 mm 3 mps 737 mmHg 63%
    06:00 +13°C° 0 mm 3 mps 737 mmHg 63%
    07:00 +13°C° 0 mm 3 mps 737 mmHg 63%
    08:00 +14°C° 0 mm 3 mps 737 mmHg 62%
    09:00 +16°C° 0 mm 3 mps 738 mmHg 60%
    10:00 +17°C° 0 mm 4 mps 738 mmHg 58%
    11:00 +18°C° 0 mm 4 mps 738 mmHg 58%
    12:00 +19°C° 0 mm 4 mps 739 mmHg 57%
    13:00 +20°C° 0 mm 5 mps 739 mmHg 57%
    14:00 +20°C° 0 mm 4 mps 739 mmHg 58%
    15:00 +20°C° 0 mm 4 mps 739 mmHg 59%
    16:00 +19°C° 0 mm 3 mps 740 mmHg 61%
    17:00 +17°C° 0 mm 3 mps 740 mmHg 67%
    18:00 +16°C° 0 mm 3 mps 740 mmHg 74%
    19:00 +13°C° 0 mm 3 mps 740 mmHg 81%
    20:00 +12°C° 0.1 mm 3 mps 740 mmHg 82%
    21:00 +13°C° 0.1 mm 2 mps 740 mmHg 84%
    22:00 +12°C° 0.1 mm 2 mps 740 mmHg 85%
    23:00 +12°C° 0 mm 2 mps 740 mmHg 86%

    27 September, Thursday

    Time Temperature Precipitation Wind Pressure Humidity
    00:00 +10°C° 0 mm 2 mps 740 mmHg 87%
    01:00 +10°C° 0 mm 2 mps 740 mmHg 87%
    02:00 +10°C° 0.2 mm 2 mps 740 mmHg 88%
    03:00 +10°C° 0.2 mm 2 mps 740 mmHg 88%
    04:00 +9°C° 0.2 mm 2 mps 740 mmHg 88%
    05:00 +9°C° 0.3 mm 2 mps 740 mmHg 89%
    06:00 +9°C° 0.3 mm 2 mps 740 mmHg 89%
    07:00 +9°C° 0.3 mm 2 mps 740 mmHg 90%
    08:00 +9°C° 0.7 mm 2 mps 740 mmHg 89%
    09:00 +9°C° 0.7 mm 2 mps 740 mmHg 88%
    10:00 +9°C° 0.7 mm 2 mps 739 mmHg 88%
    11:00 +9°C° 0.8 mm 2 mps 739 mmHg 87%
    12:00 +10°C° 0.8 mm 1 mps 739 mmHg 86%
    13:00 +11°C° 0.8 mm 1 mps 739 mmHg 85%
    14:00 +11°C° 0.4 mm 1 mps 739 mmHg 83%
    15:00 +11°C° 0.4 mm 1 mps 739 mmHg 82%
    16:00 +11°C° 0.4 mm 1 mps 739 mmHg 80%
    17:00 +10°C° 0.1 mm 1 mps 739 mmHg 83%
    18:00 +10°C° 0.1 mm 1 mps 739 mmHg 86%
    19:00 +9°C° 0.1 mm 1 mps 738 mmHg 90%
    20:00 +7°C° 0 mm 2 mps 738 mmHg 91%
    21:00 +7°C° 0 mm 2 mps 738 mmHg 92%
    22:00 +6°C° 0 mm 2 mps 738 mmHg 93%
    23:00 +6°C° 0 mm 2 mps 738 mmHg 93%

    28 September, Friday

    Time Temperature Precipitation Wind Pressure Humidity
    00:00 +6°C° 0 mm 2 mps 738 mmHg 92%
    01:00 +5°C° 0 mm 3 mps 738 mmHg 92%
    02:00 +5°C° 0 mm 3 mps 737 mmHg 90%
    03:00 +5°C° 0 mm 3 mps 737 mmHg 88%
    04:00 +5°C° 0 mm 3 mps 737 mmHg 87%
    05:00 +5°C° 0 mm 3 mps 737 mmHg 84%
    06:00 +5°C° 0 mm 3 mps 737 mmHg 82%
    07:00 +5°C° 0 mm 3 mps 737 mmHg 79%
    08:00 +6°C° 0 mm 4 mps 737 mmHg 73%
    09:00 +7°C° 0 mm 5 mps 737 mmHg 68%
    10:00 +8°C° 0 mm 5 mps 738 mmHg 62%
    11:00 +9°C° 0 mm 5 mps 738 mmHg 61%
    12:00 +9°C° 0 mm 5 mps 738 mmHg 60%
    13:00 +10°C° 0 mm 5 mps 738 mmHg 58%
    14:00 +10°C° 0 mm 5 mps 738 mmHg 59%
    15:00 +12°C° 0 mm 4 mps 738 mmHg 59%
    16:00 +12°C° 0 mm 4 mps 738 mmHg 59%
    17:00 +11°C° 0 mm 3 mps 738 mmHg 65%
    18:00 +9°C° 0 mm 3 mps 738 mmHg 70%
    19:00 +8°C° 0 mm 2 mps 738 mmHg 75%
    20:00 +8°C° 0 mm 2 mps 738 mmHg 75%
    21:00 +8°C° 0 mm 3 mps 738 mmHg 75%
    22:00 +8°C° 0 mm 3 mps 738 mmHg 75%
    23:00 +8°C° 0 mm 3 mps 738 mmHg 75%
    Show more